GFSSW_sfc_30mbdewp_105.txt.gz
Dewpoint
55 54 53 52 51 50 49 49 49 49 49 48 47 46 46 47 49 45 28 26 40 42 42 35 32 30 26 26 33 31 19 18 18 21 18 28 27 29 29 28 28 27 24 26 27
55 54 53 53 52 51 49 49 49 49 49 47 46 45 45 48 45 34 36 41 49 46 32 26 21 27 28 23 25 29 22 16 24 24 21 26 27 26 25 24 24 25 27 28 26
56 55 54 53 52 51 50 50 49 49 48 46 44 44 47 48 21 12 43 46 46 47 31 29 22 19 16 24 19 23 17 25 26 27 28 25 25 25 24 22 23 23 23 25 25
56 56 55 54 52 51 50 50 49 49 47 45 44 44 47 44 25 28 47 51 49 48 34 25 21 17 13 16 22 14 22 22 23 24 26 23 23 20 21 22 23 23 25 25 24
56 56 55 54 52 51 50 50 49 48 45 44 44 45 43 16 6 28 45 54 50 45 29 25 22 16 10 10 15 20 20 23 23 23 23 22 21 21 22 23 23 23 23 22 22
56 56 55 54 52 51 50 50 49 46 44 44 44 46 40 9 14 33 33 47 42 35 29 24 18 17 17 24 19 21 18 18 20 20 20 20 20 21 20 20 20 20 19 20 21
56 56 55 54 53 51 50 49 47 45 44 44 44 45 40 15 26 31 34 40 36 32 28 28 29 27 23 14 20 20 19 22 22 22 22 22 19 19 21 21 17 15 15 17 20
57 56 55 54 53 51 50 50 46 44 44 43 45 44 31 35 39 39 36 30 31 32 29 29 29 26 16 17 17 18 20 15 20 20 20 19 16 18 16 14 13 15 16 18 18
57 56 55 53 52 51 50 47 45 43 42 43 44 41 30 35 29 33 33 22 25 28 27 24 22 19 16 14 12 17 11 17 18 20 19 17 16 16 15 12 14 15 17 18 18
55 56 54 52 51 50 47 43 41 44 44 44 44 35 33 21 31 35 39 31 21 20 21 22 19 15 15 14 9 12 15 18 18 17 16 13 11 12 13 14 15 17 18 18 18
55 56 54 52 50 47 42 38 40 38 42 32 34 27 22 34 37 26 35 31 26 25 20 18 17 16 15 14 13 14 14 11 12 14 14 16 14 14 15 15 16 17 18 18 26
55 55 53 51 48 45 36 29 35 32 28 35 34 35 33 35 30 30 30 26 22 21 23 18 17 18 19 16 13 11 11 13 15 16 15 15 15 16 17 17 17 18 27 43 44
54 55 52 49 46 41 35 28 36 36 32 31 30 30 29 32 22 27 22 22 23 22 21 22 22 22 16 15 14 16 17 17 17 17 18 16 13 15 17 17 33 44 44 42 40
55 53 49 47 42 40 37 37 34 31 20 21 17 25 32 33 27 22 26 18 16 19 18 18 20 22 21 20 20 17 18 16 16 17 11 16 9 13 15 16 37 42 41 40 39
53 50 47 44 37 33 35 31 28 33 18 17 18 27 35 24 21 27 26 21 16 15 15 12 15 16 15 15 17 15 18 18 18 17 17 15 12 12 16 14 33 41 41 40 38
51 48 44 39 39 40 43 43 37 25 18 15 22 23 31 31 22 26 24 24 21 17 19 15 20 18 18 19 18 19 19 18 19 18 14 13 11 6 12 20 36 41 40 37 36
48 45 42 40 36 41 40 35 24 20 19 19 20 24 23 19 22 22 22 22 20 19 18 19 17 21 24 21 20 20 18 10 10 14 9 16 14 10 25 39 40 39 37 36 35
46 43 40 43 43 43 38 30 20 19 16 14 16 23 21 9 9 10 22 22 24 19 18 9 12 20 19 13 12 16 19 12 9 10 13 20 15 15 39 39 39 38 36 35 34
41 39 39 41 44 40 33 24 21 17 12 9 10 12 7 8 7 20 23 23 22 23 18 17 17 20 16 16 13 17 20 21 19 22 15 12 18 35 36 35 37 36 35 33 32
37 35 37 42 41 39 31 25 19 15 15 15 10 12 6 9 6 15 21 23 22 24 24 21 15 21 19 15 12 15 11 12 24 8 2 2 13 16 30 32 35 34 33 31 29
35 32 37 43 42 34 25 24 20 17 16 15 11 12 11 9 10 13 19 22 24 23 22 19 13 16 13 10 8 8 6 16 21 23 7 -1 6 32 33 33 32 32 31 30 29
34 27 39 43 31 31 25 24 22 19 22 19 17 15 18 23 11 10 18 22 25 24 16 23 19 11 10 18 20 17 19 21 9 8 19 17 10 36 33 34 33 31 29 29 29
32 31 39 39 25 27 25 25 22 17 16 16 20 16 15 13 11 19 24 25 23 23 22 22 16 7 13 16 17 17 18 23 24 21 16 10 9 35 33 33 31 29 28 28 28
33 27 33 35 34 25 26 24 14 17 16 18 16 15 16 15 18 17 21 16 20 28 28 22 17 8 -1 9 16 16 18 17 17 14 9 11 12 17 18 30 29 28 28 28 28
29 27 28 25 28 26 23 18 13 11 14 15 13 15 15 13 13 14 15 15 17 29 26 22 14 18 15 16 20 18 16 17 16 16 13 11 11 15 18 29 28 28 27 26 26
29 25 27 24 28 25 20 15 14 14 13 12 12 13 13 12 12 12 14 13 12 30 26 26 17 21 16 16 15 12 12 14 13 13 13 12 13 17 29 28 26 26 26 25 25
31 30 25 24 22 18 17 16 14 17 20 17 15 14 14 17 17 17 17 17 15 19 24 22 19 15 8 12 9 2 9 14 17 23 19 17 18 28 26 24 24 24 25 24 24

GFSSW_sfc_30mbdewp_108.txt.gz
Dewpoint
56 56 55 54 53 52 51 50 50 50 49 49 48 46 46 47 48 34 29 29 32 41 41 33 31 26 26 24 25 22 17 15 16 17 18 22 21 24 27 25 26 26 25 26 26
57 56 55 55 54 53 51 50 50 50 49 48 46 45 45 48 38 29 31 37 49 45 29 26 23 25 18 18 22 17 13 14 15 17 17 17 19 19 22 19 21 21 23 24 24
57 57 56 55 54 53 51 50 50 49 49 47 45 44 46 46 27 18 41 44 50 44 26 22 17 17 12 19 17 17 15 16 17 18 15 15 15 18 20 18 19 19 20 20 23
58 57 57 56 55 53 52 50 50 49 48 45 44 44 46 35 30 30 49 48 48 38 28 25 19 15 12 13 14 13 14 14 15 15 16 17 16 14 14 15 17 17 19 21 23
58 57 57 56 55 54 52 50 50 49 46 44 44 45 36 20 22 36 52 50 41 36 25 21 18 15 11 8 8 15 9 10 14 14 14 13 13 14 13 15 19 21 20 22 22
58 57 57 56 56 54 52 51 50 48 45 44 44 45 33 22 18 24 24 37 29 31 22 20 17 16 12 9 10 12 16 16 18 19 19 18 16 17 18 19 18 19 20 20 19
56 57 57 56 56 54 52 51 49 45 44 44 44 40 34 25 22 26 30 30 30 31 23 22 20 16 17 18 19 20 16 15 16 18 16 17 16 15 18 17 19 18 17 16 19
54 56 57 56 55 54 52 50 47 45 44 44 44 41 31 28 30 30 26 25 31 31 26 27 27 26 23 19 16 16 15 14 16 19 20 20 14 17 19 17 16 15 16 17 17
53 54 56 56 55 53 51 49 46 45 43 42 40 38 31 33 27 25 26 19 18 29 28 24 25 20 18 16 14 15 12 13 14 18 16 17 14 17 17 17 14 13 15 17 18
52 52 54 55 54 52 49 45 42 44 43 42 42 35 35 32 25 33 35 21 13 25 26 23 20 19 18 14 12 12 12 13 14 15 17 14 13 12 11 10 11 13 16 18 20
53 53 53 55 52 48 45 43 41 40 40 36 35 34 23 26 34 31 34 31 16 10 8 18 15 13 14 15 14 11 11 10 12 12 10 12 13 15 15 15 15 16 17 19 29
52 54 53 55 51 47 42 41 39 35 35 38 35 34 35 32 30 29 30 26 23 13 9 11 12 10 11 13 13 12 12 12 13 15 17 15 14 15 15 15 16 17 20 34 37
51 54 54 53 49 44 41 36 39 36 34 35 34 34 33 32 31 31 27 24 24 19 17 16 15 20 16 17 17 16 14 13 13 14 15 14 11 8 13 15 19 30 37 38 39
52 54 54 49 44 41 37 35 37 31 29 31 28 30 31 30 29 31 28 24 23 22 21 21 20 21 18 17 16 12 14 15 13 11 6 15 3 8 10 15 25 34 37 39 38
54 54 50 47 41 40 41 41 38 33 21 22 22 26 29 27 22 23 26 25 21 20 23 21 14 13 17 15 17 13 11 14 14 13 13 11 9 1 11 14 25 35 39 38 37
54 51 47 43 42 40 35 36 39 29 21 26 20 22 26 24 22 25 22 24 22 21 18 16 17 18 16 15 16 16 16 16 16 13 10 8 6 -5 8 11 28 38 38 38 37
51 48 46 41 40 41 38 37 28 24 22 19 19 20 21 18 20 23 20 19 17 16 15 15 15 19 22 18 18 17 15 11 10 10 4 10 5 1 21 32 35 38 37 37 36
49 47 44 44 43 41 38 33 24 25 22 18 19 20 17 12 17 20 18 16 20 17 13 13 15 18 18 17 15 15 14 8 1 -1 3 15 9 16 35 37 38 36 35 35 34
45 42 42 44 44 41 37 28 27 27 20 19 16 21 18 12 14 19 21 15 18 22 12 15 14 19 17 15 15 15 16 17 17 14 12 5 10 32 35 37 36 34 33 33 32
41 39 39 45 44 40 33 31 29 21 14 13 12 18 15 11 8 13 20 23 23 25 26 26 18 21 20 15 12 16 14 15 17 6 -3 -6 -2 5 29 32 32 32 31 32 31
39 33 37 44 41 35 29 29 25 16 15 13 11 14 15 11 8 11 19 22 26 27 27 25 20 16 17 14 12 8 5 8 13 11 2 -5 -5 31 33 33 32 30 30 30 30
34 27 39 42 30 32 29 30 27 23 22 17 16 17 17 23 11 14 17 21 24 22 17 22 14 9 9 15 17 11 7 4 5 -1 7 7 6 33 33 32 31 29 30 30 30
31 30 38 39 27 28 30 28 21 18 17 18 21 18 18 28 24 21 22 25 25 22 19 19 11 5 5 13 17 12 15 17 22 17 10 5 7 31 32 30 30 29 29 30 29
33 28 31 33 33 27 27 28 24 20 17 17 21 22 23 20 24 21 20 18 25 23 27 19 11 3 -7 6 12 14 13 14 15 12 7 4 4 12 17 16 23 28 29 29 29
34 31 29 27 30 30 29 28 23 21 15 15 15 18 18 17 16 18 18 16 23 30 27 19 11 10 8 7 11 7 8 11 10 12 10 9 10 13 13 14 29 29 28 27 27
31 26 26 26 30 29 27 22 17 15 14 13 12 14 14 12 11 13 17 15 15 25 22 25 16 17 11 11 10 7 7 7 8 9 9 8 9 10 18 28 28 27 27 26 26
32 31 26 29 29 27 24 17 15 17 18 14 14 14 14 16 17 17 17 16 16 20 23 20 17 13 5 6 6 3 5 5 5 10 12 16 19 22 27 26 26 26 25 24 25

GFSSW_sfc_30mbdewp_114.txt.gz
Dewpoint
58 58 57 56 56 55 54 53 52 51 50 50 50 49 47 48 46 38 37 33 31 36 26 21 28 26 20 13 19 20 19 18 18 19 19 19 18 20 21 21 23 23 24 25 27
59 59 58 58 57 56 54 53 52 51 50 50 49 48 47 48 39 38 40 39 38 35 18 23 25 25 23 21 20 20 20 21 21 21 19 17 17 18 17 17 22 22 23 25 24
60 60 59 58 57 56 55 54 53 51 50 50 48 46 47 44 39 29 42 36 37 37 26 26 23 19 22 21 20 20 21 22 22 22 20 18 17 18 17 15 16 18 20 21 22
55 58 59 59 58 57 56 55 53 51 50 49 47 45 44 41 34 37 42 41 42 37 34 28 23 21 20 21 21 19 20 20 21 20 18 16 16 16 15 18 19 19 19 18 19
53 54 56 57 58 58 57 55 53 51 50 48 45 44 39 44 41 44 46 43 37 32 29 28 26 25 23 23 23 22 19 19 18 18 18 16 12 13 14 14 14 14 15 16 20
53 53 54 55 57 58 57 55 53 51 50 45 44 43 39 41 44 40 33 36 32 31 30 28 25 25 24 23 21 22 22 21 17 16 17 17 15 17 18 18 16 15 15 16 19
52 53 53 53 54 56 57 56 53 51 47 44 44 38 38 41 44 44 32 29 30 31 31 28 28 25 23 21 22 21 19 20 20 20 21 21 19 18 18 19 19 19 18 18 21
51 52 52 53 52 53 56 55 53 50 45 44 43 37 40 44 44 42 42 41 32 30 30 30 29 26 24 23 22 20 21 21 21 20 20 19 17 18 19 18 17 18 17 18 18
51 51 51 52 52 52 55 54 51 48 45 44 39 40 39 41 41 41 37 34 33 31 28 29 27 26 26 22 21 22 21 22 21 20 19 18 16 18 19 18 18 19 18 18 18
50 50 50 51 52 53 53 50 48 44 42 40 37 38 39 37 37 34 27 29 30 26 25 26 24 22 23 22 19 19 17 16 17 17 17 17 17 17 18 17 18 18 18 18 17
49 49 50 51 52 51 48 46 44 43 40 41 33 34 32 34 31 31 31 27 24 23 18 23 24 23 22 22 21 20 18 18 18 18 17 16 14 16 17 16 16 18 17 16 16
48 49 50 51 52 50 49 46 42 43 38 40 40 37 36 34 32 33 34 29 28 22 21 19 22 24 24 22 20 19 18 17 17 16 16 15 13 13 13 14 13 15 16 16 17
48 48 50 50 51 50 49 47 47 42 40 36 33 34 34 35 32 32 31 31 30 27 25 23 22 21 18 16 14 14 14 16 14 13 15 14 12 13 15 16 15 15 16 23 27
48 48 50 50 49 49 47 50 41 45 35 26 24 31 32 30 30 32 33 30 28 27 27 23 21 19 19 18 17 14 18 18 16 14 16 16 12 13 13 10 12 14 28 35 36
47 48 50 51 48 46 46 39 44 45 20 11 18 28 27 30 27 22 30 30 28 27 26 25 23 21 23 24 23 20 21 23 21 22 22 16 14 13 13 9 11 25 36 36 36
47 48 49 50 49 47 39 40 45 33 22 15 19 23 25 26 27 26 23 24 27 26 26 25 26 25 25 28 26 18 16 20 23 19 17 16 13 11 11 15 15 35 35 35 36
47 49 49 51 46 43 40 44 32 25 18 13 13 20 19 19 22 24 24 19 19 22 23 23 22 22 26 25 20 18 17 14 21 18 15 13 11 11 35 33 36 36 34 34 33
47 48 51 50 46 41 43 38 26 19 20 12 15 15 18 19 20 20 19 17 19 21 19 18 20 20 23 24 21 18 19 22 16 15 16 28 21 25 35 38 37 33 32 31 30
48 50 50 49 44 43 41 30 25 22 15 17 17 16 13 16 17 16 15 15 17 18 17 20 20 23 22 23 21 20 19 23 22 25 19 19 26 36 34 33 32 30 30 28 27
45 43 41 47 44 44 37 31 28 24 21 19 16 18 18 15 15 17 16 17 16 18 19 20 18 28 25 18 17 15 14 17 28 20 13 12 11 26 33 32 31 30 28 27 26
44 39 40 45 44 39 31 32 33 29 25 26 22 18 21 21 22 26 21 15 21 19 21 20 24 27 26 20 17 16 11 13 16 15 19 12 13 34 35 35 34 28 27 25 26
40 35 41 44 33 32 32 36 35 30 31 30 25 23 21 22 22 17 22 24 26 25 23 28 27 24 23 20 17 15 16 16 13 12 13 11 12 32 35 33 28 26 26 26 26
33 32 39 41 29 30 33 36 35 33 31 27 22 21 23 23 21 19 17 26 26 29 27 29 29 20 18 22 17 14 14 13 16 17 14 13 12 30 27 24 27 26 26 26 27
34 28 31 34 36 32 31 33 33 34 33 27 23 23 21 21 24 22 19 24 25 24 23 27 24 23 21 17 14 15 13 10 12 14 13 12 10 13 27 21 19 25 27 26 27
36 31 31 27 29 32 34 33 32 33 32 33 30 26 21 21 26 27 23 24 23 26 22 20 18 18 17 13 11 7 6 10 8 10 11 15 14 14 11 18 24 26 26 26 26
33 34 34 33 29 32 35 33 33 32 30 31 25 25 23 26 26 25 23 25 26 23 24 22 20 18 16 13 9 5 4 4 4 4 7 7 9 10 12 27 28 27 26 26 26
39 40 36 33 31 30 32 30 30 28 27 26 25 26 27 27 25 23 25 24 20 25 24 22 20 16 11 8 5 4 6 5 5 4 4 6 14 27 29 30 27 27 26 25 26

GFSSW_sfc_30mbdewp_117.txt.gz
Dewpoint
59 59 58 58 57 56 56 55 53 52 52 51 51 50 50 49 46 41 38 38 36 34 25 20 21 27 29 20 15 16 18 17 17 18 19 22 18 19 19 21 22 23 24 26 28
60 60 60 59 58 57 57 55 54 53 52 51 51 50 49 48 42 40 42 39 37 31 19 20 24 26 24 22 18 16 19 18 20 22 22 22 19 18 18 18 19 23 25 25 25
55 56 59 60 59 58 57 56 55 54 52 51 51 49 48 47 40 32 40 40 36 31 24 28 30 24 20 22 22 21 19 21 22 23 24 21 19 18 17 18 19 18 21 22 23
52 53 54 56 58 59 58 57 56 54 52 51 49 47 46 43 35 36 41 39 37 37 35 35 31 23 22 20 23 21 21 20 21 22 21 20 20 16 15 17 18 17 18 18 18
53 53 53 53 54 56 57 57 56 55 52 51 47 45 40 43 43 44 42 43 40 34 30 29 28 26 25 24 24 23 23 23 23 22 21 18 18 18 17 15 16 16 15 16 17
51 52 53 53 53 54 55 57 56 54 52 48 46 45 39 40 44 45 43 39 32 31 30 30 28 28 26 24 23 24 23 22 22 22 22 20 19 19 19 17 18 18 16 16 17
51 52 52 52 53 53 53 56 56 54 51 47 45 41 38 42 45 45 43 41 35 35 33 33 31 28 27 25 25 23 21 22 21 21 21 21 19 20 22 21 20 20 20 17 19
52 52 51 51 51 52 52 54 55 53 49 45 45 39 38 43 43 42 43 43 42 31 30 30 31 30 28 27 25 22 22 21 22 22 23 21 19 21 22 20 20 20 20 20 21
51 50 51 51 51 51 53 54 53 50 47 45 41 38 39 41 42 43 43 42 38 40 32 30 29 29 27 25 24 23 20 21 22 24 24 22 20 21 21 20 19 19 20 20 19
50 49 50 50 51 53 52 50 50 47 45 43 39 37 38 33 37 39 40 38 34 33 31 27 26 23 24 24 22 22 21 21 20 20 20 19 18 18 20 19 19 19 19 19 20
49 49 49 50 51 50 48 47 44 42 41 39 36 35 33 35 34 36 30 29 29 29 25 25 23 22 22 22 24 22 21 21 21 21 19 18 17 17 17 18 17 19 19 19 36
49 49 49 50 51 50 48 43 43 43 39 41 41 39 35 35 34 33 34 30 25 22 24 21 20 24 25 25 24 23 21 19 18 18 17 17 15 15 16 15 15 15 16 18 39
49 49 49 49 48 50 48 45 47 43 39 37 36 39 39 39 35 34 34 32 30 27 27 23 22 22 22 22 22 22 20 17 16 19 22 20 19 16 17 16 16 16 16 21 39
48 48 48 49 47 47 45 48 48 44 35 31 29 32 34 36 31 35 35 32 30 28 29 28 27 26 24 21 19 17 23 23 22 25 23 23 20 22 21 19 18 18 33 36 37
47 48 48 49 48 43 44 49 44 44 -3 13 21 30 31 31 28 26 31 32 30 30 28 27 27 27 26 26 23 21 28 20 17 20 26 22 20 19 19 17 23 35 37 37 36
47 47 48 47 48 47 48 45 44 31 14 21 23 26 26 29 29 28 27 31 31 30 29 28 27 27 26 26 26 28 23 19 17 21 21 22 20 18 18 23 37 38 36 35 34
47 47 47 47 44 45 42 45 31 25 20 10 13 22 24 24 25 24 25 25 22 19 21 24 26 26 27 25 29 28 20 19 17 16 14 18 19 18 36 38 38 36 33 32 32
47 47 46 47 49 42 45 37 24 21 15 12 15 15 17 20 19 20 23 23 23 21 19 19 20 22 29 26 26 25 20 21 16 17 19 22 21 30 40 39 39 34 30 29 29
46 45 47 51 48 44 41 28 24 21 18 19 18 16 16 16 18 17 19 21 20 18 17 17 20 24 24 23 25 23 18 22 22 24 21 20 29 35 37 37 37 37 36 35 33
43 41 43 48 45 45 36 28 28 26 22 22 20 18 17 18 19 18 18 17 17 18 20 20 18 27 28 20 19 20 17 20 27 20 16 17 18 29 34 35 36 34 31 28 28
41 38 41 47 45 41 31 31 30 31 28 26 24 22 25 22 23 27 31 31 26 21 21 25 22 27 28 24 17 16 14 14 24 23 18 17 19 33 35 36 32 31 27 27 27
39 31 42 46 35 33 32 33 32 31 31 29 30 28 29 25 24 27 29 34 31 25 24 28 29 27 26 26 23 21 18 18 15 13 15 16 16 34 36 35 32 27 27 27 28
36 34 40 41 30 30 33 33 34 32 33 31 30 29 31 22 23 23 26 27 27 29 28 28 27 21 20 25 27 25 16 18 20 19 17 17 19 33 32 28 30 28 27 27 27
34 30 33 35 37 33 30 31 31 35 33 33 33 29 25 22 26 23 23 25 25 27 29 28 28 23 18 23 24 18 18 16 15 14 14 15 15 17 28 28 27 27 27 27 27
35 32 31 26 30 32 34 32 29 30 33 33 33 29 26 25 24 25 25 24 24 25 23 24 20 22 21 20 20 24 20 12 13 13 12 13 15 17 24 27 27 27 27 26 26
32 32 36 32 30 32 32 33 30 30 31 34 30 30 31 30 30 31 27 26 25 26 23 23 20 19 18 18 16 12 9 7 7 6 6 7 10 31 30 29 27 27 26 25 25
38 39 37 32 33 30 29 32 32 32 34 34 33 32 31 32 32 30 25 28 28 26 25 24 22 19 15 12 10 7 8 12 8 18 19 19 28 29 27 26 26 26 25 25 25